This is the latest recevied weather packets stored in our database for station/object K2ATL. If no packets are shown the sender has not sent any weather packets the latest 10 day(s).
| Time | Temp. | Humidity | Pressure | Rain* | Wind** | Luminosity | Snow |
|---|---|---|---|---|---|---|---|
| 1787527521 | 26.67° C | 57% | 1101.9 hPa | 0 mm | - | 48 W/m² | - |
| 1787527216 | 26.67° C | 55% | 1101.9 hPa | 0 mm | - | 62 W/m² | - |
| 1787526913 | 27.78° C | 53% | 1101.8 hPa | 0 mm | - | 48 W/m² | - |
| 1787526608 | 28.33° C | 51% | 1102 hPa | 0 mm | - | 81 W/m² | - |
| 1787526304 | 28.33° C | 51% | 1101.8 hPa | 0 mm | - | 92 W/m² | - |
| 1787526000 | 28.33° C | 51% | 1101.8 hPa | 0 mm | - | 108 W/m² | - |
| 1787525696 | 28.33° C | 50% | 1101.8 hPa | 0 mm | - | 135 W/m² | - |
| 1787525395 | 27.78° C | 49% | 1101.9 hPa | 0 mm | - | 150 W/m² | - |
| 1787525092 | 28.89° C | 47% | 1101.9 hPa | 0 mm | - | 181 W/m² | - |
| 1787524792 | 28.89° C | 49% | 1101.9 hPa | 0 mm | - | 221 W/m² | - |
| 1787524488 | 28.89° C | 48% | 1101.8 hPa | 0 mm | - | 237 W/m² | - |
| 1787524188 | 27.78° C | 49% | 1102 hPa | 0 mm | - | 257 W/m² | - |
| 1787523884 | 27.22° C | 53% | 1101.8 hPa | 0 mm | - | 281 W/m² | - |
| 1787523578 | 27.78° C | 50% | 1101.9 hPa | 0 mm | - | 299 W/m² | - |
| 1787523274 | 27.78° C | 56% | 1101.8 hPa | 0 mm | - | 319 W/m² | - |
| 1787522969 | 27.22° C | 52% | 1101.9 hPa | 0 mm | - | 341 W/m² | - |
| 1787522665 | 27.78° C | 58% | 1102 hPa | 0 mm | - | 362 W/m² | - |
| 1787522365 | 27.78° C | 52% | 1102 hPa | 0 mm | - | 376 W/m² | - |
| 1787522061 | 27.78° C | 47% | 1101.6 hPa | 0 mm | - | 397 W/m² | - |
| 1787521760 | 28.33° C | 46% | 1101.6 hPa | 0 mm | - | 417 W/m² | - |
| 1787521460 | 27.22° C | 49% | 1101.8 hPa | 0 mm | - | 441 W/m² | - |
| 1787521160 | 27.78° C | 47% | 1101.7 hPa | 0 mm | - | 456 W/m² | - |
| 1787520855 | 27.78° C | 55% | 1101.6 hPa | 0 mm | - | 476 W/m² | - |
| 1787520550 | 28.33° C | 47% | 1101.7 hPa | 0 mm | - | 494 W/m² | - |
| 1787520246 | 27.78° C | 47% | 1101.8 hPa | 0 mm | - | 517 W/m² | - |
* Rain latest hour (hover to see other rain measurements)
** Current wind speed in m/s (hover to see current wind gust speed)